Regional Weather Roundup
Issued by NWS State College, PA

Home | Current Version | Previous Version | Graphics & Text | Print | Product List | Glossary On
Versions: 1 2 3 4 5 6 7 8 9 10 11 12 13 14 15 16 17 18 19 20 21 22 23 24 25 26 27 28 29 30 31 32 33 34 35 36 37 38 39 40 41 42 43 44 45 46 47 48 49 50
000
ASUS41 KCTP 252003
RWRCTP

REGIONAL WEATHER ROUNDUP
NATIONAL WEATHER SERVICE STATE COLLEGE PA
400 PM EDT MON MAY 25 2015

Note: "fair" indicates few or no clouds below 12,000 feet with no
significant weather and/or obstructions to visibility.

* = STATION THAT DOES NOT REPORT PRECIPITATION /E.G. RAIN...SNOW...ETC/
    THUNDER OR FOG.

PAZ002>004-007>009-013>016-020>023-029>032-252100-
WESTERN PENNSYLVANIA

CITY           SKY/WX    TMP DP  RH WIND       PRES   REMARKS
ERIE           PTSUNNY   83  59  44 SW20G28   30.03F
MEADVILLE      MOSUNNY   81  60  48 SW13G24   30.09F
FRANKLIN*      PTSUNNY   79  59  50 S16G24    30.13F
NEW CASTLE     FAIR      84  63  49 S12G18    30.11F
BEAVER COUNTY  NOT AVBL
BUTLER*        MOSUNNY   82  59  44 S8G17     30.15F
PITTSBURGH INT PTSUNNY   82  58  43 SW10      30.13F
PITTSBURGH     MOSUNNY   83  55  38 SW13G22   30.14F
INDIANA*       MOSUNNY   84  57  39 W10       30.18F
LATROBE        MOSUNNY   84  57  39 SW16      30.17F
WASHINGTON CO* PTSUNNY   81  63  54 SW8       30.17F
$$

PAZ004>006-010>012-017>019-024>028-033>037-041-042-045-046-049>053-252100-
CENTRAL PENNSYLVANIA

CITY           SKY/WX    TMP DP  RH WIND       PRES   REMARKS
BRADFORD       CLOUDY    77  56  48 SW9G17    30.15F
DUBOIS         PTSUNNY   83  56  39 SW10      30.15F
CLEARFIELD     MOSUNNY   82  52  35 SW13G23   30.15F
JOHNSTOWN      MOSUNNY   81  50  33 SW8G20    30.19F
ALTOONA        MOSUNNY   85  54  34 S14G26    30.17F
STATE COLLEGE  NOT AVBL
WILLIAMSPORT   MOSUNNY   84  57  39 S18G30    30.10F
SELINSGROVE    PTSUNNY   86  55  34 S10       30.15F
FT INDIANTOWN  MOSUNNY   84  58  41 S13       30.16F
CAPITAL CITY   PTSUNNY   84  56  38 S14       30.16F
HARRISBURG     PTSUNNY   84  57  39 SW10G20   30.16F
YORK           PTSUNNY   82  59  45 SW14G20   30.18F
$$

PAZ038>040-043-044-047-048-054-055-060>062-067>071-252100-
EASTERN PENNSYLVANIA

CITY           SKY/WX    TMP DP  RH WIND       PRES   REMARKS
SCRANTON       MOSUNNY   87  50  27 S13G25    30.13S
MOUNT POCONO   MOSUNNY   82  49  31 SW18G25   30.21F
ALLENTOWN      SUNNY     87  52  29 S17G25    30.16S
QUAKERTOWN*    CLEAR     84  54  34 S16G22    30.19F
READING        MOSUNNY   86  57  37 SW15G24   30.16S
LANCASTER      MOSUNNY   83  58  42 S13G22    30.17F
COATESVILLE    PTCLDY    81  59  47 SW9       30.22S
POTTSTOWN      MOSUNNY   83  55  38 S10G24    30.20F
BLUE BELL      SUNNY     86  55  35 SW15G21   30.18F
DOYLESTOWN     SUNNY     83  53  35 SW12G21   30.17F
WILLOW GROVE   NOT AVBL
NORTH PHILA    MOSUNNY   86  53  32 S15G23    30.20F
PHILADELPHIA   PTSUNNY   86  55  34 SW22G30   30.20F
$$


USA.gov is the U.S. government's official web portal to all federal, state and local government web resources and services.